Location: Asheville, NC
(35.6000°N, 82.5500°W)
Time: 14:36:53
(UTC-04:00)

Vanguard 1 Rocket - Pass Details

Date: 07 December 2017
Orbit: 655 x 4223 km, 34.3° (Epoch: 19 April)

Event Time Altitude Azimuth Distance (km) Brightness Sun altitude
Rises 22:01:17 0° 275° (W) 6,303 12.2 -56.9°
Reaches altitude 10° 22:04:43 10° 275° (W) 5,657 11.8 -57.6°
Enters shadow 22:18:59 64° 266° (W) 4,006 10.4 -60.4°
Maximum altitude 22:24:41 83° 191° (S) 4,005 - -61.5°
Drops below altitude 10° 22:51:16 10° 108° (ESE) 7,151 - -66.5°
Sets 22:56:18 0° 107° (ESE) 7,935 - -67.4°
